This is the latest recevied weather packets stored in our database for station/object K5IDL. If no packets are shown the sender has not sent any weather packets the latest 10 day(s).
| Time | Temp. | Humidity | Pressure | Rain* | Wind** | Luminosity | Snow |
|---|---|---|---|---|---|---|---|
| 1777916796 | 26.67° C | 46% | 1012 hPa | 0 mm | - | 753 W/m² | - |
| 1777916491 | 26.67° C | 46% | 1012.2 hPa | 0 mm | - | 690 W/m² | - |
| 1777916189 | 26.67° C | 45% | 1012.3 hPa | 0 mm | - | 586 W/m² | - |
| 1777915886 | 26.67° C | 46% | 1012.4 hPa | 0 mm | - | 719 W/m² | - |
| 1777915582 | 26.67° C | 45% | 1012.3 hPa | 0 mm | - | 660 W/m² | - |
| 1777915279 | 26.67° C | 46% | 1012.4 hPa | 0 mm | - | 556 W/m² | - |
| 1777914976 | 25.56° C | 47% | 1012.6 hPa | 0 mm | - | 523 W/m² | - |
| 1777914673 | 25.56° C | 47% | 1012.6 hPa | 0 mm | - | 532 W/m² | - |
| 1777914369 | 25.56° C | 46% | 1012.9 hPa | 0 mm | - | 514 W/m² | - |
| 1777914067 | 25.56° C | 45% | 1012.9 hPa | 0 mm | - | 749 W/m² | - |
| 1777913762 | 25.56° C | 46% | 1013.1 hPa | 0 mm | - | 644 W/m² | - |
| 1777913459 | 25° C | 46% | 1013 hPa | 0 mm | - | 622 W/m² | - |
| 1777913155 | 25° C | 47% | 1013.3 hPa | 0 mm | - | 554 W/m² | - |
| 1777912852 | 25.56° C | 46% | 1013.1 hPa | 0 mm | - | 536 W/m² | - |
| 1777912548 | 25° C | 47% | 1013.4 hPa | 0 mm | - | 573 W/m² | - |
| 1777912245 | 25° C | 47% | 1013.4 hPa | 0 mm | - | 473 W/m² | - |
| 1777911941 | 25° C | 49% | 1013.4 hPa | 0 mm | - | 466 W/m² | - |
| 1777911637 | 25° C | 48% | 1013.4 hPa | 0 mm | - | 528 W/m² | - |
| 1777911333 | 25° C | 49% | 1013.4 hPa | 0 mm | - | 448 W/m² | - |
| 1777911032 | 24.44° C | 50% | 1013.3 hPa | 0 mm | - | 472 W/m² | - |
| 1777910729 | 23.89° C | 51% | 1013.5 hPa | 0 mm | - | 483 W/m² | - |
| 1777910425 | 24.44° C | 50% | 1013.4 hPa | 0 mm | - | 539 W/m² | - |
| 1777910122 | 23.89° C | 51% | 1013.6 hPa | 0 mm | - | 474 W/m² | - |
| 1777909820 | 23.89° C | 52% | 1013.4 hPa | 0 mm | - | 538 W/m² | - |
| 1777909516 | 23.89° C | 52% | 1013.6 hPa | 0 mm | - | 534 W/m² | - |
* Rain latest hour (hover to see other rain measurements)
** Current wind speed in m/s (hover to see current wind gust speed)